Погода в Зилаире

Погода в Зилаире : погода сейчас, прогноз погоды и архив. Всё, что Вы хотите узнать о погоде в Зилаире!

Поиск расширенной информации на нашем сайте:

Другие новости

Новости СМИ2

Главная страница сайта

Новости сайта

02.10.2013

Напоминаем, что на нашем новом сайте вы можете получить высокодетализированные прогнозы погоды по пунктам России, СНГ и мира (включающие важные для авиации метеовеличины, такие как направление и скорость ветра, видимость, явления погоды, количество и форма облачности, нижняя и верхняя граница облачности), а также ознакомиться с разнообразными материалами по авиационной метеорологии и подборкой полезных ссылок на эту тему.

Сайт Метеоцентр.Азия посвящён разработке технологий оптимизации авиаметеорологического обслуживания, включая проектирование и перспективное создание нескольких автоматизированных авиаметеорологических систем:
- система выпуска высокодетальных прогностических карт явлений погоды для нижнего воздушного пространства по России и ближнему зарубежью;
- система верификации прогнозов TAF (выпускаемых синоптиками официальных АМСГ РФ и ближнего зарубежья) и AUTOTAF (выпускаемых сайтом Метеоцентр.Азия) - выявление ошибок, онлайн-сопоставление с фактической погодой METAR, автоматическое внесение коррективов в прогнозы при резком отклонении фактической погоды от прогноза, подсчёт оправдываемости прогнозов по элементам и в целом;
- система обработки, анализа и отображения авиаметеорологической информации для применения провайдерами метеорологической информации.

Рекомендуем: Бизнес план салона штор.

Погода в Зилаире - сегодня

Время (UTC), дата Ветер
(°,м/с) 
Видим.   Явления Облачность Т
(°С)
Тd
(°С)
f(%) Тe
(°С)
Pmin
(гПа)
dP
(гПа)
Po
(мм)
O2
(г/м3)
Тmin Tmax R s Состояние
почвы
09 23.04.17 290 (З) 4{12}  10 км  {ливн. осадки}  10/10 600 м кучево-дожд. 
[Cb calv]
+2.1 +0.4 88 1012  3.6  712  284           
12 23.04.17 270 (З) 2{13}  10 км  {ливн. осадки}  10/10 600 м 
[Sc]
+4.5 +1.3 80 +4  1014.3  2.7  714  283           
15 23.04.17 210 (ЮЗ) 10 км    10/10 600 м 
[Sc]
+5.6 +2.7 82 +6  1015.1  715  282    +5.6  0.7     
18 23.04.17 190 (Ю) 10 км    4/4 600 м 
[Sc]
+4.5 +2.4 86 +3  1016.7  1.3  716  283           
21 23.04.17 200 (Ю) 10 км    4/4 600 м 
[Sc]
+3.7 +1.8 87 +3  1017.3  0.4  716  284           
00 24.04.17 120 (ЮВ) 10 км  слаб. ливневой дождь  10/10 600 м кучево-дожд. 
[Cb cap]
+4.6 +3.1 90 +5  1016.9  -0.2  716  283           
03 24.04.17 150 (ЮВ) 10 км  {ливн. осадки}  10/4 600 м верхняя 
[Sc|Cs]
+5.6 +2.8 82 +5  1015.5  -1.1  715  282  +3.3    0.7    мокрая 
06 24.04.17 160 (Ю) 4-11{11}  10 км  {ливн. осадки}  9/0 средняя 
[Ac und]
+9.4 +3.1 65 +8  1012.1  -2.4  713  277           
09 24.04.17 160 (Ю) 5{16}  10 км    10/0 средняя 
[Ac As]
+12.6 +2.2 49 +12  1008.1  -3.1  711  273           
12 24.04.17 170 (Ю) 5{12}  10 км    9/0 средняя 
[Ac und]
+15.4 +1.1 38 +15  1004.7  2.6  709  270           
15 24.04.17 230 (ЮЗ) 2{13}  10 км  слаб. ливневой дождь  10/10 600 м кучево-дожд. 
[Cb cap]
+11 +7.5 79 +11  1005.8  0.2  709  273    +15.9  0.5     
18 24.04.17 220 (ЮЗ) 10 км  {ливн. осадки}  10/10 600 м кучево-дожд. 
[Cb calv]
+10.5 +9 90 +10  1005.3  -0.5  709  273           
21 24.04.17 270 (З) 4{10}  10 км    10/10 600 м 
[Sc]
+7.6 +4.7 82 +6  1007.8  1.6  710  277           
00 25.04.17 230 (ЮЗ) 10 км    6/6 600 м 
[Sc]
+4.8 +2.6 86 +4  1010.2  1.7  711  281           
03 25.04.17 260 (З) 10 км    10/10 600 м 
[Sc]
+4.8 +1.9 81 +4  1013.2  2.8  713  282  +4.6    0.4    мокрая 
06 25.04.17 280 (З) 20000 м    9/9 600 м 
[Sc]
+6 +1.7 74 +6  1015.4  2.3  715  282           
09 25.04.17 310 (СЗ) 20000 м    3/3 600 м 
[Sc]
+8.3 +2.1 65 +8  1016.3  2.3  716  280           
12 25.04.17 310 (СЗ) 20000 м    ясно 
+10.1 +1.2 54 +10  1016.3  0.4  716  278           
15 25.04.17 320 (СЗ) 20000 м    ясно 
+8.1 -0.4 55 +8  1017.4  0.6  717  280    +10.5       
18 25.04.17 010 (С) 10 км    ясно 
+3.8 -0.8 72 +3  1019.9  1.4  718  285           
21 25.04.17 020 (С) 10 км    ясно 
+0.7 -1.4 86 +1  1020.3  -0.3  717  288           
00 26.04.17 020 (С) 10 км    10/0 средняя 
[Ac As]
-0.5 -1.8 91 1020.4  -0.2  717  290           
03 26.04.17 350 (С) 4000 м  слаб. снег  10/10 600 м 
[Ns]
+0.5 -0.5 93 +1  1021.6  1.4  718  289  -1      замёрзшая 
06 26.04.17 тихо ()   4000 м  слаб. снег  10/0 средняя 
[As trans]
+1.9 +0.8 92 +2  1021  -0.3  718  287           
09 26.04.17 240 (ЮЗ) 4000 м  слаб. дождь{снег}  10/10 600 м 
[Ns]
+3.6 +1.8 88 +4  1021.3  0.7  719  285           
Время (UTC), дата Ветер
(°,м/с) 
Видим.   Явления Облачность Т
(°С)
Тd
(°С)
f(%) Тe
(°С)
Pmin
(гПа)
dP
(гПа)
Po
(мм)
O2
(г/м3)
Тmin Tmax R s Состояние
почвы

Для получения пояснительной информации подведите курсор к названию столбца.

ПОГОДА в Зилаире - архив

Всё, что Вы хотите узнать о погоде в Зилаире - удобно и подробно!

Выберите нужную дату (начиная с 1 января 2015* года) и нажмите кнопку "Найти".
Будут отображены архивные сводки погоды по пункту Зилаир, начиная с указанной даты.


Отображать данные в формате CSV (для использования в таблицах Excel)


Внимание! Наш архив погоды предназначен исключительно для личного некоммерческого использования в познавательных целях. Если Вам необходимы официальные справки о состоянии погоды (для производственных, юридических, коммерческих и т.п. целей), обращайтесь в органы Росгидромета.

*Примечание: данная дата относится к архиву по метеостанциям СССР (Россия, СНГ, Балтия).
Архив по метеостанциям Зарубежной Европы и Азии (кроме Китая) хранится 10 дней, по другим регионам земного шара (Китай, Африка, Америка, Австралия, Океания) - 1 день.

Зилаир - район местоположения метеостанции


Название, широта, долгота, высота метеостанции:
Зилаир 52.2°ш. 57.4°д. 521 м над ур. моря [Российская Федерация]

Дополнительная информация

В oтличие oт бoльшинства пoгoдных сайтoв мы публикуем пoдрoбную метеoинфoрмацию в детальнoм прoфессиoнальнoм фoрмате.

Характеристики температуры и влажнoсти вoздуха измеряются на высoте 2 м в тени вдали oт зданий и деревьев.
Скoрoсть ветра измеряется на высoте 10 м (на урoвне рoста челoвека скoрoсть ветра ниже в 1.5-2 раза). Если метеoстанция нахoдится в гoрoде или в лесу, тo скoрoсть ветра занижена на 2-4 м/с пo сравнению с oткрытым местoм. Скoрoсть ветра над акватoриями крупных рек и oзёр, а также на вершинах хoлмoв на 2-5 м/с выше, чем в oбычных услoвиях.
Атмoсфернoе давление в разных тoчках местнoсти мoжет значительнo oтличаться oт давления на метеoстанции, в зависимoсти oт услoвий рельефа (при пoдъёме на 10 м давление пoнижается примернo на 1 мм рт.ст.).